Location: Street
(51.1247°N, 2.7429°W)
Time: 10:50:30
(UTC+00:00)

Tiros 1 - Pass Details

Date: 27 November 2020
Orbit: 630 x 663 km, 48.4° (Epoch: 21 January)

Event Time Altitude Azimuth Distance (km) Brightness Sun altitude
Rises 21:04:40 0° 279° (W) 2,982 11.3 -45.0°
Enters shadow 21:05:49 - 276° (W) 2,557 10.8 -45.1°
Reaches altitude 10° 21:07:12 10° 270° (W) 2,063 - -45.3°
Maximum altitude 21:11:27 33° 207° (SSW) 1,090 - -45.9°
Drops below altitude 10° 21:15:39 10° 144° (SE) 2,037 - -46.5°
Sets 21:18:08 0° 134° (SE) 2,938 - -46.9°
